Location: Bronschhofen
(47.4788°N, 9.0353°E)
Time: 18:59:37
(UTC+00:00)

Cosmos 2228 - Pass Details

Date: 20 May 2022
Orbit: 586 x 617 km, 82.5° (Epoch: 06 July)

Event Time Altitude Azimuth Distance (km) Brightness Sun altitude
Rises 02:21:51 0° 354° (N) 2,902 7.2 -11.2°
Reaches altitude 10° 02:24:08 10° 359° (N) 1,990 6.4 -11.0°
Maximum altitude 02:28:27 54° 77° (ENE) 752 3.9 -10.5°
Drops below altitude 10° 02:32:43 10° 155° (SSE) 1,960 5.4 -10.0°
Sets 02:34:57 0° 160° (SSE) 2,855 6.2 -9.7°
